Wind_Speed
18 8 6 11 12 14 14 13 9 4 5 7 6 5 6 6 5 4 4 5 6 8 7 9 10 13 17 11 11 23 24 20 22 22 24 27 28 29 30 31 32 33 34 31 30 33 34 34 33 32 32 31 32 34 35 35 34 35 34 33 32 31 32 32 33 34 35 35 35 36 37 38 37 35 35 33 32 31 31 30 28 28 28 28 28 28
16 10 12 18 16 14 13 11 9 5 5 6 6 6 5 6 5 4 5 3 1 5 4 6 8 11 15 13 14 20 16 15 25 25 25 30 32 34 34 33 33 32 32 30 30 32 32 33 32 32 32 32 34 34 35 36 35 35 35 36 34 33 34 34 34 35 36 37 37 37 38 38 38 37 37 36 34 33 32 31 30 30 30 30 30 29
8 10 17 21 15 11 9 10 11 7 5 4 4 5 4 4 1 3 3 3 2 4 4 5 7 9 12 14 15 17 14 19 30 31 30 32 32 36 37 37 37 36 35 34 34 34 33 33 33 33 34 34 34 34 36 37 36 36 37 37 37 36 36 36 35 36 36 36 37 37 37 36 37 38 37 37 35 34 33 33 32 32 31 32 31 31
8 13 19 16 11 10 8 9 10 6 4 4 4 5 3 3 3 3 4 4 1 3 3 4 7 8 9 12 13 18 21 24 32 35 34 34 33 37 39 39 39 40 40 40 40 39 38 38 38 38 38 36 36 36 37 38 38 38 38 38 38 38 38 37 37 37 36 36 36 36 36 35 36 37 37 37 37 36 37 36 35 35 34 33 33 32
11 9 10 12 12 15 11 8 10 7 6 5 5 6 4 5 6 4 2 3 3 3 3 3 9 11 9 12 14 17 19 21 29 33 32 35 37 39 40 40 41 42 43 44 43 42 41 41 41 40 40 39 38 38 38 38 39 39 39 38 38 39 40 40 39 38 38 38 38 37 37 37 37 38 39 41 41 41 41 40 39 38 36 35 34 34
13 7 15 14 12 12 9 7 11 10 7 7 7 9 8 7 7 4 3 0 3 5 4 3 6 9 5 11 15 12 10 13 21 26 27 34 38 38 40 43 45 45 45 46 45 45 44 43 43 41 40 40 39 39 38 37 38 39 39 38 38 39 40 41 41 40 40 41 40 39 39 40 40 41 43 43 43 43 42 42 40 39 37 36 36 35
7 9 14 14 10 11 10 9 11 11 8 7 6 7 7 8 8 6 6 3 3 5 4 2 4 8 4 7 10 9 8 10 14 16 21 31 34 34 39 44 46 46 47 47 47 47 46 46 46 44 42 41 41 40 38 37 37 38 39 39 39 39 40 41 42 42 43 42 42 42 41 41 42 43 43 42 41 41 41 41 41 39 38 38 37 37
6 11 11 12 12 10 10 11 11 13 9 6 6 11 8 7 8 7 7 5 4 3 3 1 3 7 11 6 7 8 9 10 11 11 15 25 31 34 38 43 45 47 48 47 47 48 47 47 46 45 44 42 41 39 38 38 38 38 38 39 39 39 40 40 42 43 44 44 44 44 43 43 43 43 43 42 41 40 40 40 41 41 40 40 39 38
10 14 14 15 13 9 13 13 12 15 10 5 8 11 8 6 6 6 6 4 1 2 5 4 3 4 12 6 6 8 11 13 13 12 13 21 29 34 38 42 44 46 47 46 47 47 45 45 43 41 40 39 39 38 38 38 38 38 38 39 40 40 40 40 41 42 43 44 44 44 44 44 44 43 42 42 42 42 41 41 41 41 42 41 41 41
5 13 16 13 10 9 11 8 11 14 8 5 8 8 6 6 5 4 5 4 2 2 9 7 5 4 13 8 5 5 10 13 12 10 11 21 31 35 37 40 40 40 41 42 43 42 41 42 41 38 36 35 36 36 37 38 38 39 39 40 41 41 40 39 40 41 42 42 43 45 45 45 44 43 42 43 43 43 43 43 42 42 42 43 43 43
2 6 13 9 9 8 6 8 13 14 9 9 7 7 6 5 4 3 3 3 2 6 12 12 10 8 11 8 6 7 7 8 8 6 8 19 30 35 36 38 39 38 39 39 39 40 40 40 39 37 35 33 33 33 35 37 38 40 40 40 41 40 40 39 39 40 41 42 43 44 44 44 43 42 43 44 43 43 43 43 43 42 42 43 43 44
2 4 7 7 12 12 10 7 8 11 14 10 5 5 4 2 1 1 1 1 4 9 12 12 12 11 11 8 4 5 5 5 8 8 8 14 25 33 37 38 40 40 39 39 39 38 35 33 32 32 33 33 32 32 34 35 36 38 40 41 41 41 40 40 40 41 41 42 44 44 44 44 43 42 43 43 43 42 43 42 41 41 41 42 42 43
4 3 3 5 12 16 11 5 4 7 10 7 5 7 5 3 3 4 4 4 7 10 7 5 9 9 13 14 8 8 7 5 8 11 14 17 24 32 34 34 34 33 32 30 30 29 25 23 23 24 27 28 30 31 31 31 32 34 37 39 41 41 40 40 41 42 42 43 44 43 44 43 42 43 44 43 42 42 42 41 41 41 41 41 41 42
5 5 5 5 8 15 14 8 6 7 8 9 9 10 9 6 5 7 8 5 7 10 4 4 6 5 10 13 13 15 15 15 17 18 21 24 26 30 30 29 26 23 23 21 20 19 18 18 19 20 21 22 24 26 28 29 30 31 33 36 39 40 40 41 42 43 43 43 43 43 43 43 43 44 44 43 42 42 42 41 41 41 41 41 41 40
9 7 9 8 7 16 17 13 13 11 11 14 11 9 10 7 6 8 7 7 8 7 2 4 4 5 7 5 5 9 12 19 24 24 25 27 28 30 31 30 25 19 19 20 18 18 17 16 17 19 21 20 19 21 24 27 29 30 31 33 35 37 38 40 42 43 44 43 43 43 43 43 43 44 44 43 42 41 41 41 41 41 42 41 41 40
9 6 6 10 10 16 16 13 15 12 7 8 5 6 9 8 6 3 3 6 6 3 2 4 4 5 6 8 8 8 7 9 17 21 23 27 31 33 34 35 33 27 24 22 22 21 20 19 20 22 22 20 17 18 20 23 26 29 30 31 33 34 35 38 40 41 43 43 43 44 43 43 43 43 44 44 43 42 41 41 41 41 40 40 40 40
6 3 2 8 8 14 18 15 16 14 8 4 5 7 7 6 5 2 2 1 3 3 5 5 6 6 7 13 15 14 10 7 9 13 18 28 35 33 32 37 40 38 35 32 30 29 28 27 27 26 23 20 17 16 18 20 22 24 26 28 30 31 32 35 37 39 41 42 43 44 44 43 43 44 44 42 41 40 41 42 41 40 39 39 39 39
5 1 1 8 9 13 19 16 12 14 9 5 9 10 2 1 1 2 3 1 3 5 5 6 11 10 7 9 8 9 15 12 7 9 14 24 31 29 33 40 42 42 41 39 37 36 35 35 32 26 24 22 20 20 21 22 22 23 24 26 27 29 30 32 33 35 37 39 41 43 43 43 43 43 42 40 38 38 41 42 40 40 39 38 38 38
3 1 2 8 9 7 9 8 5 8 4 2 5 9 5 1 3 4 4 3 4 6 5 8 13 10 9 11 6 5 13 14 11 11 11 15 21 26 34 40 40 38 37 34 31 30 31 32 29 26 26 25 25 25 25 24 26 26 25 26 27 28 28 28 30 32 33 36 38 40 41 41 41 41 40 39 37 38 41 40 39 39 39 38 38 38
3 3 2 3 4 4 5 5 6 6 4 1 2 4 4 3 4 6 6 5 6 7 7 8 9 8 10 15 14 10 10 11 12 13 12 14 22 28 32 34 33 29 25 23 21 21 21 22 21 21 23 23 23 23 22 23 25 26 26 27 28 28 28 28 29 31 32 33 35 37 38 39 39 39 39 38 38 39 40 38 38 38 38 37 38 38
2 3 3 2 1 3 4 6 10 12 9 6 5 6 6 4 2 2 4 5 5 5 6 8 9 9 7 8 11 13 11 11 13 13 12 19 30 34 35 36 34 27 21 20 20 20 20 20 19 20 20 20 20 20 20 21 22 23 24 26 27 28 29 30 30 31 31 32 33 34 35 36 36 37 37 37 38 39 39 38 37 37 37 37 37 37
4 3 5 2 2 5 5 4 8 12 12 10 8 8 9 9 6 4 6 7 5 5 5 5 10 11 7 3 8 12 11 11 15 15 13 22 35 39 39 38 36 32 28 24 22 21 20 21 22 21 21 20 20 20 20 20 20 21 22 23 24 26 27 29 30 30 30 30 31 32 32 33 33 34 35 36 37 38 38 37 36 36 36 37 36 36
4 3 5 4 3 5 3 1 1 4 8 8 6 6 7 7 7 7 9 7 7 8 6 3 7 12 7 4 7 9 11 15 21 22 17 23 34 37 35 33 30 30 29 26 24 21 19 20 21 20 20 19 19 19 18 18 19 20 21 21 23 24 25 27 29 29 30 29 29 30 30 31 32 32 34 35 36 37 36 36 35 35 36 37 36 36
2 2 5 3 1 1 1 2 3 4 4 4 4 6 7 7 8 9 7 3 5 9 8 5 8 13 8 5 5 5 8 16 22 24 23 24 29 32 32 27 23 21 22 23 25 23 20 20 20 18 18 18 17 17 17 18 19 20 22 23 24 25 25 26 28 29 30 30 29 29 29 30 31 32 34 35 36 36 35 35 35 36 37 37 36 36
6 4 6 6 3 1 1 2 1 1 2 4 6 10 12 11 11 9 5 3 4 8 12 8 9 13 8 3 3 5 5 7 12 19 23 23 26 31 30 25 21 21 21 22 23 23 21 20 18 17 18 17 17 17 17 18 19 20 22 23 25 26 27 27 28 29 29 29 29 29 30 30 31 33 34 34 35 35 35 35 35 36 36 36 35 35
8 5 8 9 8 7 7 7 7 5 5 3 3 10 15 15 15 10 5 7 7 9 12 10 10 15 10 2 2 5 4 5 11 15 17 21 26 28 26 24 23 22 22 21 22 23 21 18 17 17 17 17 17 17 16 16 17 18 20 22 24 26 27 28 29 29 29 28 28 29 30 31 32 33 34 35 35 35 35 35 35 35 34 34 34 34
3 3 10 12 12 12 10 8 6 7 8 7 7 12 15 15 17 12 7 8 9 9 10 11 12 17 19 12 5 5 4 6 9 10 13 19 24 24 24 23 23 22 22 20 22 23 20 17 17 17 17 17 17 16 16 16 16 17 19 21 23 25 27 28 29 29 29 29 29 29 29 30 32 33 34 35 35 35 34 34 33 33 32 32 33 33
2 4 13 13 15 16 9 5 8 10 13 15 15 17 16 15 16 15 12 11 9 8 11 15 14 16 25 20 6 2 7 6 6 9 13 17 19 20 21 21 22 23 23 22 22 22 19 17 17 17 17 17 17 17 17 16 16 18 20 21 22 24 25 26 28 28 28 29 29 29 29 29 30 30 31 32 33 33 32 31 31 31 31 32 32 33
2 7 14 13 17 19 10 6 7 9 11 14 17 18 16 16 17 18 18 15 11 9 10 11 10 14 24 20 6 5 8 8 10 14 14 15 17 18 19 21 25 27 26 25 25 23 21 19 18 18 17 18 19 18 18 17 18 21 22 20 20 22 23 23 25 26 27 27 28 27 27 28 27 27 27 28 29 29 29 29 30 30 30 31 31 30
3 7 10 10 14 18 14 8 6 6 7 8 12 14 14 15 16 16 17 15 14 12 10 12 13 16 22 16 5 7 12 12 15 16 15 18 19 19 21 24 28 30 27 26 28 28 26 23 21 20 19 19 20 20 19 20 22 23 22 20 20 20 21 21 21 22 23 24 24 24 25 25 25 25 25 26 27 27 28 29 29 29 28 28 27 27
5 5 6 6 8 14 14 9 7 7 6 6 9 11 11 12 12 12 12 11 12 12 12 15 15 17 22 15 4 7 13 13 14 16 18 22 20 18 22 25 28 30 28 27 29 30 28 25 24 23 21 21 22 22 22 23 24 24 23 21 20 19 20 20 19 19 20 20 20 21 22 22 22 22 23 24 25 25 26 26 25 25 25 24 24 24
5 3 3 5 5 9 11 11 11 10 8 10 12 10 11 11 10 11 12 12 12 11 12 13 12 15 20 12 8 12 14 11 12 17 21 22 21 21 24 27 30 31 30 28 28 28 27 26 25 24 24 24 24 24 24 25 26 27 26 23 21 20 20 19 18 18 18 17 18 18 19 19 19 20 20 21 22 22 22 22 22 22 22 22 22 22
5 4 4 4 4 8 10 11 11 9 9 11 11 12 14 14 14 15 14 14 15 13 10 10 12 15 16 11 9 18 19 13 15 22 24 25 29 31 33 34 34 34 32 31 30 29 28 28 28 29 30 33 32 30 29 30 30 30 28 25 22 20 20 19 18 18 17 16 17 17 17 17 17 18 19 19 20 20 20 21 21 21 21 21 21 22
3 5 5 4 4 8 9 6 6 8 9 6 8 15 20 19 20 19 16 17 18 15 12 13 15 17 19 17 17 21 24 25 27 29 29 30 33 36 38 40 39 37 36 36 35 34 34 34 36 39 42 45 45 42 39 35 34 32 29 26 23 21 21 20 19 19 17 17 17 17 17 17 18 18 19 19 20 20 21 21 20 20 21 21 22 22
4 4 3 2 3 6 4 5 6 9 6 4 7 15 20 22 22 19 18 20 18 15 16 17 19 22 24 22 22 26 31 32 30 30 32 34 37 38 39 40 39 37 38 41 44 46 46 46 48 50 51 52 50 48 45 40 36 34 31 29 27 26 25 25 23 21 19 18 18 18 18 19 19 20 21 21 22 22 22 21 21 21 22 22 22 23
5 3 2 1 2 3 3 5 8 4 2 0 6 6 10 15 16 15 17 20 20 20 20 21 25 27 23 24 31 34 31 25 22 28 36 39 39 38 38 37 35 35 39 44 48 50 50 51 52 52 52 50 47 46 46 41 37 37 37 34 32 32 30 29 28 25 22 22 21 21 22 21 21 22 23 24 24 24 23 23 22 23 23 23 23 23
5 4 2 1 2 3 2 3 3 4 5 4 5 2 5 10 13 14 15 17 19 20 19 19 23 22 20 28 34 25 12 8 11 27 42 43 38 35 34 33 36 40 45 49 49 50 51 52 51 50 49 48 46 44 43 40 37 38 41 39 36 35 34 33 32 29 27 25 25 26 27 27 25 24 24 25 25 26 26 25 24 24 23 23 24 24
5 5 4 3 3 2 1 2 1 2 2 2 3 3 2 3 6 10 10 12 13 14 17 19 20 20 23 28 24 10 2 4 11 21 24 20 20 25 29 34 41 46 50 51 51 52 54 53 51 49 48 48 46 44 42 41 39 39 42 43 41 39 38 38 35 32 30 28 28 30 32 33 31 29 27 27 27 27 27 26 26 25 24 24 24 24
4 2 4 4 2 2 3 2 2 3 2 1 2 2 6 7 3 4 4 11 10 11 19 21 19 23 27 19 7 6 3 7 13 11 1 2 11 22 29 36 41 43 43 44 46 48 50 50 49 48 48 48 48 47 44 42 43 44 44 45 45 44 43 42 39 34 32 31 30 32 34 35 35 34 32 30 29 29 29 29 28 26 25 25 24 24
5 3 4 5 4 3 3 2 2 3 3 5 7 4 5 6 8 6 4 9 6 8 20 21 19 26 27 13 4 6 7 10 15 11 6 14 24 25 28 35 36 36 38 39 41 42 43 44 46 46 47 47 47 48 47 46 46 48 47 44 46 48 48 44 40 36 35 33 31 32 34 36 37 36 34 32 30 30 31 30 29 27 26 25 24 23
3 3 4 5 5 4 4 3 3 3 4 6 10 10 2 7 6 4 6 2 4 5 16 20 22 27 25 15 11 12 17 25 32 32 31 34 33 31 35 39 38 39 40 41 41 41 40 41 43 43 44 44 43 44 48 49 49 51 51 46 46 50 50 44 40 38 36 33 31 32 33 35 37 37 34 32 31 32 31 30 29 27 26 25 24 22
3 3 4 5 5 3 3 2 3 4 6 8 10 10 6 6 3 6 5 6 13 14 11 10 17 23 23 22 24 27 31 38 42 41 41 41 40 43 46 45 44 46 46 46 46 45 45 45 45 44 44 44 41 41 44 48 50 51 53 51 48 48 47 43 42 41 37 34 33 33 34 35 36 36 34 33 33 33 31 30 28 27 26 24 23 22
5 4 2 4 5 4 2 3 3 5 6 8 7 2 3 5 5 8 8 12 24 26 19 15 18 22 22 24 29 32 35 37 38 38 40 42 43 44 44 43 45 48 48 48 49 47 48 49 48 47 47 45 42 41 42 46 49 49 52 55 51 46 44 45 45 42 39 36 35 34 35 35 35 36 35 33 33 33 32 30 28 27 26 24 23 22
4 5 4 4 4 4 4 5 5 5 4 11 11 4 6 11 13 13 10 13 23 25 20 18 22 25 25 26 30 32 31 31 33 35 36 39 41 41 40 42 45 47 48 48 48 46 47 48 47 47 47 45 44 43 42 45 48 47 50 54 50 44 44 46 46 43 41 39 37 37 39 38 36 36 35 33 33 33 32 30 29 27 26 25 23 23
6 5 4 3 4 4 5 6 7 9 12 14 14 11 13 15 18 19 17 20 26 28 23 20 21 25 27 29 31 31 31 31 32 33 34 37 39 39 39 41 44 46 47 47 47 47 46 46 47 46 46 46 45 45 44 44 45 47 49 50 48 46 46 47 47 46 44 42 40 41 43 42 38 36 35 34 33 33 32 31 30 29 27 26 25 24
5 2 2 1 3 4 5 8 9 12 19 22 21 19 19 18 19 22 25 28 32 33 31 28 26 27 29 31 30 31 33 35 36 38 41 42 43 44 44 46 48 50 50 48 49 49 47 46 47 47 48 50 49 47 47 45 44 46 47 46 47 49 50 48 48 48 46 45 45 45 44 43 39 36 35 35 34 33 33 32 31 30 28 27 26 25
3 3 2 0 2 4 6 9 11 15 23 29 28 27 26 27 28 30 32 35 37 37 35 31 28 26 27 30 32 35 39 40 41 44 46 46 48 49 50 51 53 55 56 55 53 51 50 49 49 49 51 53 51 49 48 47 46 46 46 46 47 48 48 48 49 49 48 47 48 47 44 41 39 37 37 37 36 35 34 33 32 31 29 28 26 26
3 4 5 4 6 6 7 10 15 22 29 33 32 28 27 30 33 34 35 37 39 39 37 33 28 24 26 33 38 40 42 43 44 46 47 47 49 51 52 53 55 56 58 58 56 54 53 53 52 50 51 51 48 46 47 47 47 46 48 49 47 45 46 48 48 49 50 50 48 46 43 41 40 39 38 38 38 37 36 34 33 32 30 28 27 27
3 2 4 5 5 6 10 15 16 15 20 28 34 35 32 32 33 35 36 37 38 39 41 40 35 30 31 36 40 42 44 45 45 46 47 48 49 51 52 53 54 55 56 58 57 56 55 54 51 50 51 49 43 40 43 45 45 46 49 50 47 45 47 49 50 51 51 49 47 44 42 41 40 40 39 39 38 37 36 35 34 32 30 28 27 26
5 5 4 4 4 6 9 14 13 7 8 21 34 39 34 28 28 31 34 36 37 39 41 42 41 39 35 35 38 40 42 44 44 46 48 50 50 51 52 53 55 56 57 57 57 56 55 54 51 51 54 51 41 36 39 42 43 45 48 49 47 45 45 47 50 50 49 47 45 43 41 40 40 40 39 39 39 38 37 36 34 32 31 29 27 26
11 9 7 5 7 11 18 21 16 9 10 23 35 36 30 23 21 24 31 36 39 41 41 39 39 40 38 36 36 36 38 42 46 48 51 53 53 52 53 54 56 58 59 58 56 55 55 55 54 55 57 54 44 37 37 40 41 43 44 45 44 43 43 45 47 48 48 46 44 43 41 40 40 40 40 40 40 39 38 37 36 34 31 28 27 27
Wind_Direction
169 167 194 204 207 202 203 201 197 165 144 153 151 167 176 191 230 224 243 275 195 198 236 225 228 251 257 257 251 255 258 261 264 261 258 259 259 259 258 257 255 254 256 257 258 257 257 258 259 259 258 257 256 256 255 252 249 246 243 241 240 238 238 237 236 236 236 236 236 236 236 237 238 239 240 240 240 241 242 243 244 244 244 243 241 239
176 191 209 209 208 200 202 199 193 184 146 143 159 185 201 202 233 231 228 300 164 192 257 248 240 254 261 265 254 253 254 252 257 256 255 256 256 256 255 255 257 258 258 257 255 254 254 255 255 254 254 253 254 254 254 254 252 249 245 243 242 240 240 238 237 236 236 236 236 237 238 238 239 240 241 243 243 244 246 246 247 247 246 244 241 239
185 212 214 208 201 192 194 195 199 197 161 158 157 164 210 206 255 286 268 332 89 183 270 274 257 252 255 264 257 247 238 241 251 253 253 254 253 254 253 254 256 258 259 257 255 253 252 253 253 253 254 255 256 255 253 254 254 252 249 245 243 242 241 240 239 238 238 238 239 240 242 243 243 243 245 246 247 247 247 248 248 248 246 244 242 240
190 221 217 195 177 185 190 188 192 191 178 185 153 157 211 171 159 258 283 308 266 198 257 279 280 264 251 267 266 249 240 243 252 255 255 254 252 254 255 256 257 258 260 260 259 256 255 255 254 254 256 258 259 257 253 251 251 252 251 249 246 243 242 242 241 241 242 242 243 244 245 246 247 246 246 247 247 245 245 246 246 246 245 243 242 241
209 215 174 155 177 192 188 177 181 190 207 211 187 189 196 155 176 214 241 294 309 303 325 340 295 276 241 246 262 253 238 238 247 252 253 252 251 255 257 257 257 258 260 261 261 259 257 257 256 256 258 259 259 257 254 251 250 250 251 252 250 248 245 244 243 243 244 244 244 245 245 245 245 244 243 242 242 241 241 243 243 244 245 244 244 243
221 171 137 167 197 183 173 182 189 192 204 221 216 203 186 160 175 184 156 100 331 300 324 36 286 281 219 219 246 253 235 230 240 244 247 248 249 250 252 255 256 257 259 260 261 260 259 259 258 257 257 258 258 257 256 255 252 250 251 253 253 252 250 248 246 245 245 245 245 244 243 242 241 240 240 240 241 240 240 242 243 245 246 246 246 246
221 168 157 187 186 161 178 201 197 187 197 228 204 169 167 165 175 170 148 164 230 255 289 106 228 276 271 219 237 249 249 241 239 244 247 248 249 248 248 253 255 257 258 259 259 260 260 261 261 260 258 256 256 256 257 257 256 252 251 252 254 254 254 252 250 248 247 246 246 246 245 245 244 243 244 245 245 245 245 245 246 247 248 249 249 249
179 178 175 182 172 165 190 205 197 181 195 232 149 138 159 169 177 172 152 185 224 262 303 121 164 273 279 249 208 219 248 255 246 249 252 249 250 249 249 251 253 255 257 258 259 261 263 263 263 264 263 259 257 257 257 256 256 254 252 252 254 255 255 254 253 252 250 248 248 248 248 248 247 248 249 251 251 251 251 250 249 248 249 250 251 252
174 187 186 178 173 179 201 205 184 173 196 223 149 144 157 146 148 152 142 176 268 359 266 235 122 273 275 255 180 203 234 246 242 237 245 249 249 249 251 253 254 256 258 258 260 264 265 265 265 267 268 266 261 257 256 255 255 256 255 254 254 254 256 255 254 254 253 252 251 250 250 251 251 251 252 253 254 254 254 254 253 251 251 251 252 253
177 202 193 177 180 196 203 185 158 172 197 189 140 120 110 98 93 107 120 130 77 300 246 228 157 229 272 263 179 205 235 241 245 233 235 246 249 251 252 256 259 259 260 260 261 263 265 267 269 269 269 268 263 258 256 255 254 254 254 254 253 254 255 256 256 255 255 254 253 252 252 253 253 254 254 254 255 255 256 256 255 254 253 252 252 253
16 192 179 177 197 184 147 141 162 172 152 122 106 89 85 61 56 77 76 106 141 253 246 226 182 192 268 270 175 195 217 216 232 231 232 243 248 251 252 255 259 259 259 260 260 264 268 271 271 268 265 264 264 260 256 254 252 251 252 252 253 253 254 255 256 256 256 256 255 254 254 254 255 255 255 255 256 256 257 257 258 257 256 255 255 255
354 141 159 187 189 153 120 135 160 150 137 125 100 112 119 61 59 102 59 142 206 242 247 227 189 182 241 253 161 198 224 197 214 215 221 237 245 249 250 252 256 256 259 262 263 266 268 270 269 266 264 262 261 260 256 253 250 249 250 251 252 252 253 254 255 255 256 256 255 256 255 256 256 256 255 255 257 258 258 259 260 260 260 259 257 256
212 203 186 171 166 153 140 125 125 147 154 145 121 139 159 178 191 197 201 197 217 239 253 203 174 186 236 252 257 264 268 255 238 225 223 234 245 251 253 254 256 259 261 261 260 259 259 262 267 269 267 263 259 258 257 255 252 249 249 250 251 251 252 254 254 255 255 256 257 257 257 257 258 257 255 256 258 258 259 260 260 260 261 261 260 259
193 225 201 152 156 171 167 147 158 175 172 171 165 170 182 183 194 210 212 211 224 241 273 105 155 211 252 261 259 253 248 239 241 242 239 241 249 257 262 263 264 262 256 250 244 244 250 256 264 271 272 268 260 255 255 255 253 251 250 249 250 252 253 254 254 255 255 256 257 258 259 260 259 258 257 257 258 259 260 261 261 262 262 263 263 263
193 213 190 172 168 180 183 178 176 172 179 190 185 180 186 183 196 207 204 206 219 244 269 126 167 207 222 246 242 241 251 241 236 239 243 248 253 261 268 267 264 254 242 240 237 237 245 252 260 269 271 270 263 254 250 251 252 252 251 251 251 252 253 253 254 254 255 256 257 258 259 260 260 260 260 260 260 260 260 261 262 263 264 264 265 266
201 236 200 176 166 174 183 184 173 165 185 201 177 185 203 198 187 186 201 196 197 240 230 191 221 222 234 280 276 254 283 269 244 241 247 254 255 257 262 261 259 254 245 242 242 244 249 255 266 270 265 262 260 253 248 246 247 249 250 251 252 254 255 255 255 255 256 257 257 257 258 259 260 260 260 260 261 261 261 261 263 264 265 266 266 268
189 248 191 160 162 181 187 181 172 172 175 179 184 200 218 205 168 159 262 143 123 224 225 206 248 265 278 286 269 244 248 269 263 253 249 251 252 254 258 259 259 259 254 250 250 253 258 264 273 269 255 250 250 251 252 248 246 246 248 251 253 255 256 256 256 256 257 257 257 257 257 258 258 259 260 261 263 264 264 263 264 265 266 266 267 267
167 92 93 168 178 197 192 181 182 191 178 156 194 192 159 18 120 150 239 84 108 234 231 206 234 244 245 266 268 227 224 227 237 248 244 248 252 255 256 256 257 258 259 259 258 258 259 264 270 259 243 243 248 254 258 253 248 247 248 251 252 253 255 256 257 258 258 258 257 257 257 257 258 259 260 262 263 264 264 264 265 266 266 267 268 269
160 88 293 194 186 182 173 165 194 223 204 95 203 186 142 176 204 176 198 195 192 231 245 221 231 234 224 241 259 216 215 213 212 230 241 247 248 249 252 253 254 257 262 265 264 260 258 259 260 248 240 247 254 259 260 252 247 247 248 250 252 253 254 255 256 257 257 258 258 258 258 258 258 259 260 260 261 262 263 264 266 266 266 267 268 269
172 186 265 241 200 152 142 168 192 213 216 7 269 194 156 200 209 191 203 211 205 223 246 243 239 236 229 235 239 231 213 201 207 221 231 242 245 245 249 253 255 258 261 257 251 251 250 249 249 245 246 252 256 257 253 246 244 246 248 251 252 253 253 251 252 253 254 255 256 257 257 257 257 257 257 258 259 260 261 263 265 265 266 267 268 270
136 192 220 338 329 173 167 191 192 193 196 196 203 191 184 201 202 198 220 223 222 222 235 250 251 247 240 230 227 226 212 194 203 214 222 237 244 246 249 253 257 257 253 247 246 249 249 246 248 252 251 251 253 250 245 243 244 246 249 252 254 254 252 251 251 252 254 254 254 254 253 254 255 255 255 256 256 258 260 262 263 264 265 266 267 268
159 191 198 174 181 195 198 203 201 198 190 191 203 196 193 198 189 199 213 210 222 222 207 230 253 255 249 193 196 210 207 195 201 207 214 228 237 244 247 249 252 251 249 252 258 260 254 248 249 250 247 248 251 248 243 245 246 248 250 253 254 255 253 252 252 252 254 253 252 251 250 250 252 252 253 253 254 256 258 260 261 262 263 264 265 266
149 156 195 202 202 203 201 91 101 173 170 184 215 210 209 211 195 206 214 199 203 218 213 225 261 265 254 189 195 206 200 201 205 206 212 226 234 242 247 250 254 252 250 254 258 257 252 247 245 241 241 244 246 243 240 242 245 248 251 252 253 253 252 253 253 253 253 253 250 249 247 247 248 249 250 250 251 254 255 257 258 259 261 262 264 266
102 125 192 213 274 286 305 72 55 60 115 181 219 211 213 218 213 220 227 214 203 212 219 230 254 265 259 196 212 246 217 210 210 207 212 222 231 239 247 254 256 248 244 248 250 248 246 243 240 236 238 241 240 239 242 247 252 254 255 255 254 254 253 253 253 253 253 253 251 250 247 246 246 247 248 249 250 252 253 255 257 258 260 263 265 267
174 175 189 203 220 219 152 165 189 137 168 206 213 209 209 212 220 234 247 263 247 213 215 223 240 256 263 151 190 271 267 240 228 218 216 222 231 238 243 246 244 239 240 240 238 241 244 243 242 241 241 241 241 243 249 253 257 258 258 258 257 256 257 256 256 256 255 255 255 253 251 249 248 247 248 249 250 251 253 255 257 259 261 263 265 266
182 189 188 200 209 203 198 205 205 187 186 205 206 209 211 209 212 221 229 233 232 216 215 221 233 247 263 302 248 268 284 268 252 235 228 230 235 241 246 247 249 250 247 239 235 242 246 245 247 248 245 246 247 248 251 252 255 259 260 260 259 259 259 259 259 259 258 257 256 255 254 252 250 249 249 249 250 252 254 256 257 259 260 262 263 264
169 214 201 209 217 218 216 210 184 150 161 183 195 205 211 209 208 213 220 222 224 225 225 225 232 250 259 257 259 287 270 249 256 250 237 235 238 243 248 250 252 254 253 249 244 245 244 242 247 249 247 250 251 251 253 255 260 265 265 263 263 261 260 259 259 259 258 257 256 255 255 254 253 252 251 251 251 252 253 254 255 257 257 258 259 260
134 211 208 216 224 228 228 199 177 164 172 188 197 202 207 207 205 211 221 222 216 223 233 229 224 245 257 252 235 275 259 248 262 253 233 232 235 239 246 253 258 259 262 260 252 245 241 240 241 243 246 253 255 253 254 259 269 273 271 269 267 265 263 260 258 257 256 254 253 253 255 255 254 252 251 250 249 249 250 250 251 253 253 254 255 257
160 212 210 211 224 233 228 191 188 179 176 188 196 199 202 202 202 210 221 225 222 226 244 251 238 245 258 256 214 198 228 225 240 244 237 240 245 249 257 262 263 263 262 258 250 241 238 237 233 236 247 256 258 257 259 267 275 275 272 270 267 267 266 260 255 254 252 251 251 252 253 253 251 249 247 245 244 245 246 247 248 249 250 252 253 255
154 218 216 205 223 235 227 202 196 188 175 182 192 194 193 196 203 214 222 227 234 242 263 284 285 272 265 262 227 222 234 232 245 253 251 251 252 253 257 256 257 258 254 247 243 239 239 239 237 242 250 255 258 261 267 274 276 272 269 265 262 262 263 258 254 251 249 249 249 248 248 246 244 244 242 242 242 243 244 245 246 247 248 250 251 252
171 217 212 184 219 241 233 219 216 211 201 200 201 193 182 184 195 210 223 230 236 242 249 260 271 272 266 268 300 278 250 235 246 253 247 247 247 245 248 248 251 252 245 236 235 238 242 244 244 247 251 255 260 262 266 274 273 267 262 259 256 255 256 254 253 250 247 246 244 241 240 239 238 238 239 240 241 241 242 243 244 245 246 247 248 249
180 216 194 166 215 238 224 214 221 227 230 231 224 204 187 186 190 200 209 213 216 223 233 244 254 259 262 277 331 304 269 234 237 243 241 245 247 245 246 245 246 247 242 236 235 240 247 252 252 254 257 263 265 263 267 274 270 261 256 255 252 248 246 247 248 249 247 243 240 238 237 236 235 235 235 236 237 238 239 240 240 242 244 245 247 249
179 203 205 186 216 237 222 209 212 223 235 236 225 207 202 204 206 211 212 207 207 209 215 230 238 246 257 264 269 271 265 246 242 244 241 242 244 246 247 247 248 249 246 244 245 246 251 257 260 263 268 272 273 273 278 277 266 257 253 250 245 238 237 240 241 242 243 242 241 241 239 237 235 234 234 234 236 236 237 238 240 242 243 245 247 249
171 195 212 193 213 241 229 190 184 222 237 225 197 202 209 210 212 216 220 216 211 205 210 229 240 247 253 247 238 246 252 249 248 247 244 241 241 243 246 247 249 250 250 253 257 258 258 261 264 268 272 275 277 279 282 274 259 251 245 239 234 231 233 235 235 235 239 242 244 245 244 241 238 237 236 236 237 237 238 239 240 241 243 244 245 247
162 184 198 183 220 237 208 156 196 226 218 162 190 207 210 215 219 222 230 231 221 211 217 231 241 245 247 245 244 248 252 254 252 250 249 246 242 243 246 248 249 250 253 257 260 261 261 262 265 267 269 272 275 276 277 270 254 243 237 232 230 232 233 234 234 235 238 243 248 250 250 249 245 242 241 240 240 240 240 240 240 241 242 243 244 246
155 165 158 156 221 219 177 187 218 248 34 166 240 222 198 211 221 224 236 238 225 213 215 222 232 240 245 250 250 250 255 260 260 255 253 250 246 243 245 250 254 255 257 259 259 260 261 262 264 266 267 270 272 273 273 269 254 240 235 235 233 233 234 235 234 236 239 243 249 253 255 254 251 248 245 243 243 243 243 242 241 241 241 242 243 244
155 147 142 203 222 214 216 224 240 337 352 279 259 241 180 202 209 210 227 238 228 218 216 223 235 241 245 249 249 249 262 285 270 261 259 255 252 250 250 254 261 262 263 263 263 264 265 266 266 268 269 269 270 269 269 269 260 243 236 237 236 234 235 236 236 239 243 247 251 255 257 254 251 250 248 245 244 244 244 243 242 241 241 241 242 242
176 164 170 201 217 189 225 293 276 251 252 263 277 282 291 264 225 208 221 240 234 217 210 220 234 239 242 247 245 238 319 313 271 267 266 258 251 255 258 261 264 266 267 267 268 268 268 268 268 270 271 269 268 266 263 265 266 253 240 237 238 238 238 239 240 242 245 249 255 259 258 252 249 247 247 245 244 243 243 243 242 241 240 241 241 242
184 151 152 186 215 172 182 223 222 203 222 266 245 297 9 14 54 112 204 241 242 213 207 215 226 234 241 247 220 164 197 264 260 259 317 359 266 264 267 268 268 270 271 272 271 269 270 271 271 272 272 269 268 266 262 262 265 262 250 241 239 241 241 241 242 244 246 251 258 261 256 250 246 245 243 242 241 240 241 241 241 241 241 241 242 243
178 144 147 189 217 202 185 210 235 236 254 241 225 248 13 60 100 109 207 243 255 217 213 216 226 237 243 243 182 174 203 236 252 258 278 281 275 272 274 275 276 276 276 277 276 274 273 274 273 272 272 271 272 272 268 264 263 263 259 248 241 242 243 243 244 245 245 250 257 258 254 249 247 246 244 242 241 240 240 239 238 239 240 240 242 243
173 169 177 198 215 210 198 224 265 262 249 239 243 255 250 110 120 195 223 273 359 240 218 220 232 243 247 238 226 233 237 243 254 262 267 270 273 274 275 277 279 279 279 280 280 279 278 276 275 274 273 273 275 275 273 268 263 261 262 254 244 244 245 244 244 244 244 247 252 253 251 250 249 249 247 245 244 242 241 239 237 237 238 238 240 241
163 169 187 195 202 199 188 209 269 274 247 221 228 241 210 151 169 228 226 313 308 281 265 261 256 258 257 245 240 245 250 253 259 264 267 269 271 273 275 277 278 280 281 281 280 280 280 279 278 276 275 275 274 274 274 271 264 261 262 258 252 250 248 243 241 242 242 244 248 250 250 249 250 251 250 246 244 244 242 240 237 235 235 236 237 237
174 167 191 200 190 171 158 182 215 263 249 185 167 195 184 180 233 239 232 274 278 273 278 286 277 273 269 259 256 258 259 262 266 269 271 273 273 274 277 282 283 285 286 285 284 284 283 281 281 280 280 280 277 272 272 272 268 263 261 260 259 255 248 241 239 242 242 242 244 248 250 249 250 252 251 246 243 243 241 240 237 235 234 233 233 233
190 178 188 204 190 166 174 194 206 247 222 161 157 193 213 209 237 251 243 259 271 273 274 272 274 280 278 273 274 275 275 275 278 280 282 282 282 282 283 286 289 289 289 288 288 288 286 284 285 286 286 286 281 274 270 270 270 268 262 260 260 254 245 241 241 242 242 241 243 248 251 250 250 251 250 245 241 239 238 238 236 234 233 231 230 231
219 198 170 191 204 182 190 212 227 252 246 209 197 226 238 233 250 263 261 262 270 275 274 267 270 281 283 281 281 282 284 287 290 292 293 291 291 290 289 290 292 292 292 292 291 291 289 289 290 290 289 289 285 278 270 266 268 269 265 262 259 253 247 245 244 242 242 242 244 248 249 249 249 250 247 242 238 236 236 235 233 232 231 229 228 228
235 210 87 93 239 236 241 246 247 257 259 249 240 242 247 248 258 266 265 264 266 269 270 267 267 273 279 282 283 284 287 291 293 294 294 293 293 293 293 293 294 295 296 295 294 294 294 293 293 292 291 291 287 279 271 264 262 264 265 264 260 255 252 248 244 242 242 244 246 248 246 246 248 249 245 239 236 234 233 233 232 230 229 227 226 226
268 196 154 194 242 234 244 248 237 237 249 254 253 250 249 249 253 257 260 262 266 269 271 270 271 273 276 280 283 285 287 290 291 292 292 292 292 293 294 294 294 295 295 295 296 297 297 296 295 294 293 293 287 279 271 264 258 257 260 263 260 255 251 246 242 241 243 245 247 246 244 245 249 249 243 237 234 232 230 229 228 227 226 226 225 224
239 184 180 207 222 223 243 250 238 237 247 254 256 255 252 253 255 256 257 262 268 274 275 275 274 275 278 283 285 285 286 288 289 290 291 291 292 292 292 292 292 292 292 293 294 295 296 296 296 297 297 295 287 277 270 264 258 254 256 259 258 252 247 244 241 242 245 246 246 245 244 247 250 247 241 235 232 231 230 228 227 226 225 226 226 225
256 208 190 206 227 241 258 259 250 252 265 267 263 260 259 259 261 264 266 267 272 276 279 280 281 280 279 283 286 287 286 288 291 292 292 292 292 292 292 293 294 293 291 291 292 292 294 296 298 301 303 299 289 277 269 263 256 253 254 258 258 252 246 243 242 243 244 243 244 245 246 248 247 242 237 234 231 230 230 229 228 227 224 222 222 223
252 244 212 215 247 242 244 248 240 233 265 265 261 262 263 263 264 268 272 275 276 278 279 281 283 284 282 284 288 289 288 290 294 296 295 294 293 293 294 295 296 295 294 294 293 292 292 295 298 302 304 300 289 276 269 263 256 251 252 256 257 251 244 242 241 241 241 242 244 247 248 246 242 237 233 232 230 228 227 225 225 225 222 219 217 216
224 231 217 213 240 245 249 251 241 217 238 260 265 269 274 278 277 276 278 279 280 280 281 283 285 288 289 289 290 290 290 292 296 296 295 293 293 293 294 294 295 295 296 296 295 293 293 294 295 298 301 300 291 278 270 264 257 252 251 253 254 248 242 241 240 239 240 243 246 248 247 242 238 234 232 230 228 227 225 223 220 218 216 214 213 212
Height
1525 1530 1533 1529 1526 1526 1527 1529 1532 1533 1533 1536 1540 1543 1544 1544 1545 1543 1541 1539 1539 1542 1542 1541 1542 1538 1531 1531 1532 1532 1532 1532 1531 1530 1530 1529 1529 1528 1527 1526 1526 1525 1525 1527 1528 1528 1530 1531 1532 1532 1533 1534 1534 1535 1535 1536 1536 1537 1539 1540 1540 1541 1543 1544 1544 1545 1545 1546 1547 1548 1548 1549 1551 1553 1554 1555 1556 1557 1558 1560 1561 1562 1563 1563 1565 1566
1524 1527 1523 1517 1518 1522 1525 1528 1531 1533 1533 1534 1538 1541 1543 1544 1543 1541 1540 1540 1541 1543 1541 1539 1541 1539 1532 1528 1529 1529 1530 1530 1527 1526 1526 1525 1524 1524 1523 1522 1523 1522 1523 1524 1525 1525 1526 1527 1528 1529 1529 1530 1531 1531 1532 1532 1533 1535 1536 1537 1537 1539 1540 1540 1541 1541 1541 1542 1543 1544 1545 1546 1548 1550 1551 1552 1553 1555 1556 1558 1559 1559 1560 1561 1561 1563
1526 1522 1512 1510 1516 1522 1525 1528 1530 1533 1534 1535 1538 1541 1544 1545 1544 1543 1540 1540 1542 1543 1542 1540 1540 1538 1532 1526 1525 1526 1526 1525 1523 1521 1521 1521 1521 1519 1519 1519 1519 1519 1520 1521 1521 1521 1522 1523 1524 1525 1525 1526 1527 1528 1529 1530 1531 1532 1532 1533 1534 1535 1535 1536 1538 1538 1538 1539 1541 1542 1543 1545 1546 1547 1548 1550 1552 1553 1553 1554 1555 1556 1557 1557 1558 1560
1521 1512 1505 1512 1519 1523 1526 1528 1530 1534 1536 1536 1537 1541 1544 1543 1544 1545 1543 1541 1541 1542 1541 1541 1539 1534 1530 1526 1520 1520 1521 1520 1519 1517 1517 1517 1516 1515 1514 1516 1516 1516 1516 1516 1516 1517 1518 1519 1520 1520 1521 1522 1524 1524 1525 1526 1527 1528 1528 1529 1531 1532 1532 1533 1534 1535 1536 1538 1539 1541 1542 1543 1544 1545 1546 1547 1548 1549 1549 1550 1551 1552 1553 1554 1555 1556
1510 1504 1506 1515 1518 1519 1524 1528 1531 1535 1537 1537 1536 1538 1540 1541 1542 1542 1543 1541 1540 1541 1539 1542 1541 1527 1521 1525 1517 1512 1516 1515 1514 1513 1512 1512 1511 1511 1511 1511 1511 1511 1511 1511 1511 1513 1514 1515 1516 1516 1517 1518 1519 1519 1520 1522 1523 1524 1524 1526 1527 1528 1529 1529 1530 1532 1534 1535 1537 1538 1539 1540 1540 1540 1541 1541 1541 1542 1543 1544 1546 1547 1549 1551 1552 1553
1506 1504 1508 1512 1515 1518 1525 1528 1529 1531 1535 1537 1534 1532 1535 1538 1539 1540 1542 1543 1546 1547 1541 1546 1549 1526 1511 1517 1513 1508 1511 1511 1510 1508 1506 1507 1506 1507 1507 1505 1506 1506 1506 1507 1507 1508 1509 1510 1511 1512 1513 1514 1514 1515 1516 1518 1519 1520 1521 1523 1524 1524 1525 1526 1527 1529 1531 1532 1533 1534 1534 1534 1534 1534 1534 1534 1535 1537 1539 1540 1542 1545 1547 1548 1549 1550
1504 1504 1505 1509 1514 1519 1525 1527 1525 1527 1534 1536 1530 1529 1534 1536 1538 1540 1542 1545 1551 1552 1545 1547 1553 1534 1512 1511 1511 1508 1509 1507 1507 1505 1503 1503 1501 1501 1502 1500 1501 1501 1501 1502 1503 1503 1504 1504 1506 1507 1508 1509 1509 1510 1513 1514 1515 1516 1518 1519 1520 1521 1521 1523 1524 1526 1527 1528 1529 1530 1530 1530 1530 1530 1530 1531 1534 1536 1537 1539 1541 1543 1544 1545 1546 1547
1500 1504 1505 1507 1513 1519 1522 1521 1520 1524 1532 1533 1526 1528 1534 1535 1538 1541 1542 1546 1548 1550 1548 1545 1551 1546 1523 1508 1506 1507 1508 1505 1504 1504 1501 1499 1498 1497 1497 1496 1496 1496 1496 1498 1498 1498 1499 1499 1500 1501 1502 1504 1505 1507 1509 1510 1511 1512 1514 1515 1516 1517 1518 1519 1521 1522 1523 1524 1525 1526 1526 1527 1527 1528 1529 1531 1533 1534 1536 1537 1539 1540 1541 1542 1543 1544
1494 1500 1501 1503 1510 1515 1513 1512 1515 1521 1527 1528 1525 1527 1532 1535 1539 1540 1542 1547 1549 1552 1551 1545 1549 1552 1525 1501 1503 1504 1502 1501 1498 1499 1498 1494 1494 1492 1491 1491 1491 1492 1492 1494 1494 1493 1494 1494 1495 1497 1497 1499 1500 1503 1505 1505 1507 1508 1510 1511 1512 1513 1515 1516 1517 1518 1519 1520 1521 1523 1523 1524 1525 1526 1527 1529 1530 1531 1533 1534 1535 1537 1538 1539 1539 1540
1494 1495 1497 1501 1506 1508 1506 1508 1514 1519 1523 1525 1525 1528 1532 1537 1539 1542 1544 1546 1552 1554 1550 1543 1547 1551 1522 1493 1502 1507 1498 1495 1492 1493 1494 1490 1489 1487 1487 1487 1486 1488 1489 1489 1490 1489 1489 1490 1491 1493 1494 1494 1496 1497 1500 1501 1503 1505 1505 1507 1508 1509 1511 1512 1513 1514 1515 1516 1517 1518 1519 1520 1522 1523 1525 1526 1527 1527 1528 1529 1531 1532 1534 1535 1536 1537
1494 1494 1496 1499 1502 1503 1505 1511 1513 1516 1521 1524 1527 1531 1535 1539 1540 1543 1545 1545 1554 1552 1541 1535 1538 1548 1528 1489 1491 1500 1490 1488 1489 1489 1490 1486 1484 1483 1483 1483 1483 1484 1484 1485 1486 1485 1486 1486 1487 1489 1489 1490 1491 1492 1495 1496 1498 1500 1501 1502 1503 1505 1507 1508 1509 1510 1511 1512 1513 1514 1515 1516 1518 1520 1521 1522 1522 1523 1524 1525 1526 1528 1529 1531 1532 1533
1497 1497 1496 1496 1498 1500 1505 1512 1514 1516 1520 1523 1528 1532 1538 1544 1543 1546 1549 1549 1555 1545 1529 1525 1529 1545 1534 1491 1482 1490 1482 1482 1485 1484 1485 1482 1480 1478 1478 1479 1479 1480 1480 1481 1482 1482 1483 1483 1482 1484 1484 1485 1487 1488 1489 1491 1493 1495 1496 1498 1499 1500 1503 1504 1505 1506 1507 1508 1508 1509 1511 1512 1514 1515 1516 1517 1518 1519 1520 1520 1522 1523 1524 1525 1527 1528
1497 1496 1494 1493 1495 1497 1502 1513 1519 1520 1519 1522 1528 1532 1541 1549 1548 1549 1549 1545 1545 1535 1522 1523 1528 1536 1523 1487 1480 1486 1482 1483 1482 1479 1480 1478 1476 1474 1474 1475 1476 1477 1478 1478 1478 1478 1479 1480 1479 1480 1480 1481 1483 1483 1485 1487 1489 1490 1492 1494 1495 1496 1498 1500 1501 1502 1503 1504 1504 1505 1507 1508 1510 1511 1512 1513 1513 1514 1515 1516 1518 1518 1519 1520 1521 1522
1497 1496 1495 1495 1496 1495 1497 1507 1517 1519 1517 1519 1521 1525 1534 1542 1545 1547 1544 1539 1538 1530 1523 1526 1529 1529 1514 1486 1478 1479 1478 1480 1479 1477 1477 1474 1473 1472 1471 1474 1474 1474 1475 1475 1475 1476 1476 1477 1477 1477 1477 1478 1478 1479 1481 1483 1484 1486 1488 1489 1490 1492 1494 1496 1496 1497 1499 1500 1500 1502 1503 1504 1506 1507 1508 1509 1510 1511 1511 1512 1513 1514 1515 1516 1516 1517
1491 1492 1490 1490 1490 1489 1490 1494 1501 1505 1508 1508 1506 1512 1520 1523 1529 1534 1532 1532 1533 1528 1528 1530 1528 1522 1505 1482 1473 1473 1473 1474 1474 1474 1474 1471 1472 1472 1471 1472 1471 1471 1473 1473 1473 1474 1474 1475 1475 1476 1476 1475 1476 1476 1478 1479 1481 1482 1484 1485 1486 1488 1490 1491 1492 1493 1494 1495 1496 1498 1499 1500 1502 1502 1503 1504 1506 1507 1508 1509 1509 1510 1511 1512 1512 1513
1485 1483 1480 1481 1482 1483 1486 1489 1492 1500 1509 1508 1506 1513 1513 1508 1511 1518 1520 1520 1523 1527 1528 1526 1518 1503 1486 1471 1468 1471 1471 1471 1472 1472 1472 1470 1469 1470 1469 1467 1468 1469 1470 1471 1471 1471 1472 1473 1473 1474 1474 1474 1474 1474 1475 1476 1477 1478 1480 1481 1482 1484 1486 1487 1488 1488 1489 1491 1493 1494 1495 1496 1497 1498 1499 1500 1502 1503 1504 1505 1506 1507 1507 1508 1509 1510
1485 1483 1478 1480 1482 1482 1483 1486 1488 1494 1502 1507 1510 1512 1507 1502 1504 1512 1518 1517 1520 1526 1520 1512 1507 1498 1487 1471 1460 1464 1468 1468 1471 1470 1469 1468 1466 1466 1466 1463 1464 1465 1467 1469 1469 1469 1469 1470 1471 1471 1472 1472 1472 1472 1473 1474 1475 1475 1477 1478 1479 1480 1482 1483 1483 1484 1486 1487 1488 1489 1490 1492 1493 1494 1495 1496 1498 1499 1500 1501 1502 1503 1504 1504 1505 1506
1478 1482 1481 1480 1483 1482 1481 1485 1487 1487 1490 1499 1504 1503 1503 1508 1508 1509 1518 1521 1525 1527 1512 1501 1500 1498 1495 1476 1454 1457 1464 1464 1467 1468 1466 1466 1463 1463 1462 1459 1460 1461 1463 1465 1465 1466 1466 1467 1468 1468 1468 1469 1470 1470 1471 1471 1472 1473 1474 1475 1475 1477 1478 1479 1480 1481 1482 1483 1484 1484 1485 1487 1488 1490 1491 1492 1494 1495 1496 1497 1498 1499 1499 1500 1501 1502
1474 1481 1483 1479 1480 1482 1482 1487 1492 1490 1489 1493 1495 1494 1500 1510 1511 1510 1515 1517 1522 1521 1507 1496 1493 1490 1488 1471 1454 1457 1460 1459 1464 1464 1463 1462 1460 1459 1457 1455 1457 1458 1460 1462 1461 1462 1462 1463 1465 1465 1466 1467 1467 1468 1468 1469 1469 1469 1470 1471 1472 1473 1474 1476 1477 1477 1478 1479 1479 1480 1481 1482 1484 1485 1487 1488 1490 1491 1491 1492 1493 1494 1495 1496 1497 1498
1473 1478 1482 1480 1480 1482 1483 1487 1492 1493 1493 1494 1494 1494 1496 1500 1502 1502 1502 1501 1506 1511 1503 1494 1489 1480 1468 1455 1450 1455 1456 1458 1461 1460 1459 1458 1455 1455 1453 1452 1454 1456 1458 1459 1458 1459 1460 1461 1462 1462 1463 1464 1464 1465 1465 1465 1466 1466 1468 1468 1469 1470 1471 1472 1472 1473 1474 1474 1475 1476 1477 1478 1480 1481 1483 1484 1486 1486 1486 1487 1489 1489 1491 1492 1493 1494
1475 1477 1480 1482 1482 1482 1481 1481 1482 1484 1488 1492 1494 1495 1495 1496 1498 1499 1496 1493 1496 1502 1501 1496 1486 1466 1449 1443 1446 1451 1452 1454 1456 1456 1456 1454 1451 1451 1450 1450 1452 1454 1456 1456 1456 1458 1458 1459 1460 1460 1461 1461 1461 1461 1462 1462 1463 1464 1465 1466 1466 1467 1467 1468 1468 1469 1470 1470 1471 1472 1472 1474 1475 1477 1478 1480 1481 1481 1482 1483 1484 1485 1487 1488 1489 1490
1473 1476 1478 1482 1483 1479 1476 1473 1473 1474 1478 1484 1487 1487 1488 1490 1493 1498 1498 1492 1491 1493 1491 1491 1481 1455 1438 1439 1441 1442 1446 1448 1449 1450 1450 1449 1448 1446 1446 1448 1450 1452 1453 1454 1455 1455 1455 1456 1457 1457 1458 1458 1458 1459 1459 1460 1461 1462 1463 1463 1463 1464 1464 1464 1465 1466 1466 1467 1467 1468 1469 1470 1471 1473 1474 1475 1476 1477 1478 1479 1480 1482 1483 1483 1484 1485
1465 1470 1475 1478 1478 1476 1475 1475 1475 1474 1475 1480 1483 1484 1485 1487 1488 1492 1492 1487 1488 1488 1482 1486 1480 1451 1434 1438 1438 1437 1440 1441 1441 1443 1444 1445 1445 1444 1444 1446 1448 1450 1451 1452 1452 1452 1453 1453 1454 1454 1455 1455 1456 1457 1457 1458 1459 1460 1460 1461 1461 1461 1461 1461 1462 1462 1463 1463 1464 1464 1465 1466 1467 1469 1470 1471 1472 1473 1474 1475 1476 1477 1478 1478 1480 1481
1464 1469 1474 1477 1476 1475 1476 1476 1477 1477 1479 1481 1483 1483 1484 1486 1484 1484 1483 1479 1483 1485 1482 1488 1484 1453 1433 1436 1438 1437 1438 1437 1438 1439 1440 1442 1442 1442 1444 1445 1446 1447 1448 1449 1450 1450 1451 1451 1451 1452 1453 1453 1454 1455 1456 1457 1457 1458 1458 1458 1458 1458 1458 1459 1459 1459 1459 1460 1460 1461 1462 1462 1463 1465 1465 1466 1467 1468 1470 1471 1472 1473 1473 1474 1476 1476
1462 1465 1468 1474 1477 1477 1477 1478 1478 1480 1481 1479 1477 1477 1477 1480 1482 1483 1483 1482 1482 1480 1478 1484 1481 1454 1433 1434 1438 1439 1440 1439 1439 1439 1439 1440 1440 1441 1442 1443 1444 1445 1446 1447 1447 1447 1448 1448 1448 1450 1450 1452 1453 1453 1454 1455 1455 1455 1455 1455 1455 1455 1456 1456 1456 1456 1456 1456 1457 1457 1458 1459 1459 1460 1461 1462 1463 1464 1466 1467 1468 1469 1470 1470 1471 1472
1456 1457 1458 1464 1468 1468 1466 1465 1465 1468 1473 1475 1474 1472 1472 1475 1479 1481 1483 1486 1483 1475 1472 1476 1471 1450 1434 1436 1439 1440 1442 1442 1439 1439 1440 1439 1439 1440 1441 1442 1443 1443 1444 1445 1445 1445 1446 1446 1447 1448 1448 1449 1450 1451 1452 1452 1452 1453 1452 1452 1452 1452 1453 1453 1453 1453 1453 1453 1453 1453 1454 1454 1455 1456 1457 1458 1459 1461 1462 1463 1464 1465 1465 1466 1467 1467
1454 1453 1451 1452 1452 1449 1446 1445 1447 1451 1460 1469 1471 1469 1469 1470 1472 1476 1480 1481 1477 1473 1471 1467 1463 1452 1437 1435 1439 1441 1443 1443 1440 1440 1440 1438 1438 1439 1439 1440 1440 1441 1442 1443 1443 1444 1444 1444 1445 1446 1446 1447 1448 1448 1449 1449 1450 1450 1450 1450 1450 1449 1449 1449 1449 1449 1449 1449 1450 1450 1450 1450 1451 1452 1453 1454 1455 1457 1458 1459 1460 1460 1461 1462 1462 1463
1453 1452 1449 1448 1446 1441 1439 1442 1443 1443 1447 1455 1458 1460 1464 1466 1469 1473 1474 1471 1470 1474 1469 1458 1458 1458 1439 1430 1438 1442 1442 1443 1441 1439 1439 1437 1437 1437 1438 1439 1439 1439 1440 1441 1441 1442 1443 1444 1444 1444 1444 1444 1445 1446 1447 1447 1448 1448 1448 1448 1447 1447 1446 1446 1446 1446 1446 1446 1446 1446 1447 1447 1448 1448 1449 1450 1451 1452 1453 1454 1455 1456 1457 1458 1458 1459
1449 1447 1444 1446 1445 1441 1441 1445 1444 1440 1440 1444 1447 1451 1457 1460 1465 1467 1466 1465 1466 1470 1465 1455 1459 1460 1439 1429 1438 1441 1439 1441 1439 1437 1437 1436 1436 1436 1437 1438 1437 1438 1439 1440 1440 1440 1440 1441 1441 1441 1442 1442 1442 1443 1444 1445 1446 1446 1446 1445 1445 1444 1444 1443 1443 1443 1443 1443 1443 1443 1444 1444 1444 1445 1445 1446 1447 1449 1450 1450 1451 1452 1453 1454 1454 1455
1447 1444 1441 1444 1446 1442 1442 1446 1447 1444 1442 1444 1444 1447 1450 1454 1459 1461 1462 1463 1464 1466 1467 1463 1465 1460 1439 1431 1439 1440 1438 1440 1437 1436 1436 1435 1436 1436 1436 1437 1436 1436 1437 1438 1438 1438 1438 1439 1439 1439 1440 1439 1440 1441 1441 1443 1444 1444 1444 1443 1443 1442 1441 1441 1440 1440 1440 1440 1440 1441 1441 1441 1441 1441 1442 1443 1444 1445 1446 1447 1448 1448 1449 1450 1451 1452
1446 1443 1439 1444 1448 1443 1442 1447 1448 1446 1445 1446 1445 1446 1448 1452 1456 1460 1461 1462 1463 1466 1467 1467 1470 1459 1436 1431 1441 1442 1439 1439 1437 1436 1435 1434 1435 1436 1435 1435 1434 1434 1435 1435 1436 1436 1436 1436 1437 1436 1437 1437 1437 1438 1438 1439 1441 1441 1441 1440 1440 1440 1439 1438 1438 1438 1438 1438 1438 1438 1438 1438 1438 1439 1439 1440 1441 1442 1443 1444 1445 1445 1446 1447 1448 1449
1445 1443 1439 1444 1447 1441 1439 1444 1445 1445 1447 1446 1444 1445 1448 1450 1452 1453 1453 1454 1457 1461 1464 1467 1468 1453 1431 1433 1446 1444 1439 1440 1437 1434 1434 1434 1435 1434 1432 1431 1431 1431 1433 1434 1434 1434 1434 1434 1434 1433 1433 1434 1435 1435 1436 1437 1438 1438 1438 1438 1437 1437 1436 1436 1436 1435 1435 1435 1435 1435 1435 1436 1436 1436 1437 1438 1439 1439 1440 1441 1442 1442 1443 1444 1445 1446
1443 1442 1440 1443 1443 1436 1434 1437 1441 1445 1446 1440 1437 1440 1441 1442 1442 1441 1441 1443 1446 1452 1457 1458 1452 1438 1429 1436 1444 1439 1434 1436 1435 1432 1433 1433 1432 1431 1429 1428 1429 1430 1431 1432 1432 1433 1433 1432 1431 1431 1431 1431 1432 1433 1433 1434 1434 1435 1435 1435 1434 1434 1434 1434 1433 1433 1433 1433 1433 1433 1434 1434 1434 1435 1435 1436 1436 1437 1438 1438 1439 1440 1441 1441 1442 1443
1442 1440 1438 1439 1438 1433 1432 1436 1441 1443 1435 1424 1423 1427 1428 1429 1432 1433 1433 1434 1436 1440 1443 1441 1435 1429 1427 1428 1431 1427 1423 1425 1428 1428 1429 1429 1428 1426 1425 1424 1426 1428 1429 1429 1430 1431 1431 1431 1430 1429 1428 1428 1429 1430 1431 1431 1431 1431 1432 1432 1431 1431 1431 1431 1431 1431 1431 1431 1432 1432 1432 1432 1432 1433 1433 1434 1434 1435 1435 1436 1436 1437 1438 1439 1439 1440
1442 1441 1439 1440 1438 1433 1431 1437 1439 1430 1419 1413 1413 1416 1418 1419 1423 1427 1427 1426 1429 1434 1436 1436 1431 1424 1418 1417 1419 1419 1417 1419 1423 1424 1423 1423 1422 1421 1421 1421 1423 1425 1427 1427 1426 1426 1427 1427 1427 1427 1426 1425 1426 1427 1426 1426 1427 1428 1428 1428 1427 1427 1427 1428 1428 1428 1429 1429 1430 1430 1430 1430 1430 1431 1431 1432 1432 1432 1433 1433 1434 1434 1435 1436 1436 1437
1439 1441 1440 1442 1441 1434 1430 1434 1429 1417 1412 1414 1413 1412 1415 1418 1422 1428 1427 1422 1421 1425 1427 1427 1422 1415 1413 1413 1413 1413 1414 1418 1421 1419 1416 1415 1415 1417 1419 1419 1421 1424 1423 1422 1421 1420 1422 1423 1424 1423 1422 1422 1423 1422 1421 1422 1423 1424 1424 1423 1423 1423 1423 1424 1425 1425 1426 1426 1427 1428 1428 1428 1428 1428 1429 1429 1429 1430 1430 1430 1431 1432 1432 1433 1433 1434
1436 1438 1440 1442 1441 1434 1431 1431 1425 1418 1416 1416 1412 1411 1413 1414 1416 1420 1420 1413 1410 1413 1418 1419 1416 1415 1413 1409 1407 1410 1414 1418 1418 1410 1405 1408 1412 1416 1419 1420 1421 1420 1417 1415 1416 1416 1417 1417 1418 1418 1418 1418 1417 1417 1416 1418 1420 1420 1420 1419 1419 1419 1419 1420 1421 1422 1423 1423 1424 1424 1424 1425 1425 1425 1426 1426 1426 1427 1427 1427 1428 1429 1429 1430 1430 1431
1433 1434 1438 1440 1438 1436 1437 1436 1431 1427 1421 1415 1411 1410 1410 1410 1409 1412 1416 1412 1405 1408 1414 1415 1414 1412 1407 1403 1405 1411 1416 1419 1413 1400 1397 1404 1411 1414 1416 1416 1414 1411 1410 1410 1411 1410 1410 1411 1412 1413 1413 1412 1411 1411 1413 1415 1415 1415 1415 1415 1415 1415 1414 1415 1416 1418 1419 1420 1420 1420 1420 1421 1422 1422 1422 1422 1423 1423 1424 1424 1425 1426 1426 1427 1427 1427
1434 1433 1435 1439 1438 1436 1438 1437 1433 1428 1420 1414 1413 1411 1410 1411 1410 1414 1421 1416 1404 1404 1408 1409 1408 1405 1400 1401 1407 1411 1417 1419 1407 1394 1396 1405 1408 1409 1409 1407 1405 1405 1406 1405 1405 1405 1405 1406 1407 1408 1408 1406 1405 1406 1409 1410 1409 1408 1408 1409 1410 1410 1409 1409 1412 1415 1415 1415 1415 1415 1416 1417 1417 1418 1419 1419 1419 1420 1420 1421 1422 1422 1423 1423 1424 1424
1434 1433 1436 1439 1438 1436 1435 1435 1431 1425 1417 1413 1411 1409 1410 1411 1411 1418 1423 1413 1400 1401 1404 1404 1403 1400 1398 1403 1408 1408 1412 1410 1398 1392 1399 1403 1403 1404 1404 1401 1401 1402 1401 1400 1401 1401 1402 1402 1403 1403 1402 1401 1401 1402 1404 1405 1403 1402 1401 1403 1405 1403 1402 1405 1409 1410 1411 1411 1411 1411 1411 1412 1413 1414 1415 1415 1416 1416 1416 1417 1418 1419 1419 1420 1420 1421
1431 1432 1434 1436 1437 1437 1437 1436 1432 1423 1415 1411 1408 1408 1409 1411 1415 1420 1416 1404 1398 1399 1401 1402 1402 1399 1399 1404 1405 1401 1401 1398 1393 1393 1398 1399 1399 1401 1400 1398 1398 1398 1397 1396 1397 1398 1399 1398 1398 1397 1396 1396 1397 1397 1398 1398 1397 1395 1395 1396 1396 1395 1396 1402 1404 1405 1405 1406 1406 1407 1407 1408 1409 1410 1411 1412 1412 1412 1413 1413 1414 1415 1416 1416 1417 1418
1426 1427 1429 1431 1434 1436 1436 1436 1435 1424 1409 1404 1406 1407 1408 1411 1415 1413 1405 1400 1399 1399 1399 1401 1402 1401 1400 1401 1399 1396 1394 1394 1393 1394 1395 1396 1397 1397 1396 1395 1395 1393 1392 1392 1392 1393 1394 1393 1392 1392 1391 1391 1392 1392 1392 1391 1390 1389 1390 1389 1388 1389 1394 1398 1398 1398 1400 1401 1402 1402 1403 1404 1405 1406 1406 1408 1408 1408 1409 1410 1410 1411 1412 1413 1414 1414
1419 1421 1425 1424 1425 1430 1433 1436 1437 1423 1404 1399 1403 1407 1407 1406 1405 1401 1398 1398 1397 1396 1397 1400 1399 1398 1399 1397 1395 1393 1393 1393 1393 1393 1393 1393 1393 1392 1392 1392 1390 1389 1388 1388 1388 1389 1389 1387 1387 1386 1385 1386 1387 1387 1387 1385 1383 1384 1384 1381 1381 1386 1391 1392 1392 1393 1395 1396 1397 1398 1399 1400 1400 1401 1402 1403 1403 1404 1405 1406 1407 1407 1408 1409 1410 1410
1413 1415 1419 1416 1414 1421 1426 1426 1420 1408 1398 1397 1399 1400 1400 1399 1396 1395 1395 1395 1393 1392 1395 1396 1395 1395 1395 1394 1393 1392 1391 1391 1391 1391 1391 1390 1389 1389 1389 1388 1386 1385 1384 1383 1383 1384 1384 1383 1381 1380 1380 1380 1380 1381 1381 1379 1377 1378 1377 1375 1379 1384 1385 1385 1387 1388 1389 1390 1392 1394 1394 1395 1396 1396 1397 1398 1399 1400 1401 1402 1403 1403 1404 1405 1406 1406
1406 1406 1409 1408 1407 1410 1412 1408 1402 1397 1395 1396 1396 1394 1394 1394 1394 1394 1394 1392 1390 1390 1392 1392 1393 1393 1392 1391 1391 1390 1389 1389 1389 1388 1388 1387 1385 1385 1385 1384 1383 1381 1380 1380 1379 1379 1380 1379 1376 1375 1374 1373 1374 1374 1374 1373 1372 1371 1370 1372 1376 1379 1379 1380 1382 1382 1383 1385 1387 1388 1388 1389 1390 1391 1393 1394 1395 1395 1396 1397 1398 1399 1400 1401 1402 1402
1402 1403 1404 1405 1405 1405 1403 1400 1398 1396 1393 1392 1392 1393 1393 1393 1392 1392 1391 1389 1387 1387 1388 1389 1390 1391 1391 1390 1389 1388 1387 1387 1387 1386 1385 1383 1382 1381 1381 1380 1378 1377 1376 1376 1375 1375 1375 1374 1372 1370 1368 1367 1367 1367 1366 1367 1367 1365 1364 1368 1371 1373 1373 1375 1376 1376 1378 1379 1380 1381 1383 1383 1385 1386 1388 1390 1391 1391 1392 1393 1394 1395 1395 1396 1397 1399
1403 1403 1405 1405 1406 1405 1400 1395 1393 1392 1388 1387 1388 1389 1389 1390 1389 1388 1387 1385 1383 1383 1386 1387 1388 1390 1391 1390 1388 1387 1386 1385 1384 1383 1382 1381 1379 1377 1377 1376 1375 1373 1372 1371 1370 1371 1370 1368 1366 1364 1361 1359 1358 1358 1359 1359 1360 1359 1360 1362 1364 1366 1368 1370 1370 1371 1372 1373 1374 1375 1377 1378 1380 1382 1383 1385 1386 1387 1388 1389 1390 1390 1391 1392 1393 1395
1402 1402 1404 1404 1403 1401 1396 1389 1387 1387 1384 1382 1382 1383 1384 1384 1384 1383 1383 1383 1381 1381 1383 1385 1386 1388 1389 1388 1386 1384 1383 1382 1381 1379 1377 1377 1376 1373 1372 1372 1371 1370 1368 1366 1366 1366 1364 1362 1359 1357 1355 1351 1349 1350 1351 1351 1352 1354 1355 1356 1358 1361 1362 1364 1365 1366 1366 1367 1369 1370 1371 1374 1375 1377 1378 1380 1381 1382 1383 1384 1385 1386 1387 1388 1389 1391
1402 1402 1400 1398 1398 1398 1392 1384 1382 1386 1384 1379 1377 1378 1379 1380 1381 1381 1381 1382 1381 1380 1380 1380 1382 1385 1386 1386 1384 1381 1378 1377 1377 1375 1374 1373 1371 1369 1368 1367 1366 1365 1364 1362 1362 1361 1359 1356 1353 1351 1348 1345 1343 1344 1343 1343 1345 1348 1348 1350 1352 1354 1356 1357 1359 1360 1361 1362 1363 1365 1367 1369 1370 1372 1373 1375 1377 1378 1379 1380 1381 1382 1383 1384 1386 1388
1400 1398 1396 1396 1397 1394 1385 1376 1378 1385 1384 1374 1370 1373 1376 1379 1381 1380 1379 1379 1379 1378 1377 1376 1377 1379 1381 1382 1381 1379 1376 1373 1372 1372 1371 1368 1366 1365 1364 1363 1362 1360 1358 1358 1357 1355 1354 1351 1348 1346 1342 1340 1339 1339 1337 1336 1339 1340 1342 1344 1346 1347 1350 1351 1353 1354 1355 1357 1359 1361 1362 1364 1365 1367 1369 1370 1372 1374 1375 1376 1378 1379 1380 1381 1383 1385
1394 1392 1392 1395 1394 1385 1375 1371 1375 1382 1379 1370 1367 1370 1374 1378 1380 1379 1376 1374 1373 1372 1373 1374 1373 1373 1375 1376 1377 1376 1374 1371 1369 1368 1366 1363 1362 1361 1360 1359 1358 1355 1353 1353 1352 1349 1347 1346 1343 1341 1338 1335 1335 1335 1333 1332 1333 1334 1336 1338 1340 1342 1344 1346 1347 1349 1351 1352 1354 1356 1357 1359 1360 1362 1364 1366 1368 1369 1371 1372 1373 1374 1376 1378 1380 1382